Rogers City, MI

8:52 PM EDT on April 26, 2018 (GMT -0400)
Presque Isle County

Weather History for KPZQ - May, 2012

Change the Weather History Date:

Thursday, May 3, 2012

  Actual Average (KAPN) Record (KAPN)
Temperature  
Mean Temperature 54 °F -  
Max Temperature 64 °F 56 °F 86 °F (1949)
Min Temperature 44 °F 34 °F 20 °F (1950)
Degree Days  
Heating Degree Days 11    
Growing Degree Days 4 (Base 50)    
Moisture  
Dew Point 50 °F    
Average Humidity 89    
Maximum Humidity 94    
Minimum Humidity 76    
Precipitation  
Precipitation 0.00 in - - ()
Sea Level Pressure  
Sea Level Pressure 29.92 in    
Wind  
Wind Speed 4 mph (SE)    
Max Wind Speed 17 mph    
Max Gust Speed 24 mph    
Visibility 4 miles    
Events Fog , Rain    
Averages and records for this station are not official NWS values.
T = Trace of Precipitation, MM = Missing Value Source: NWS Daily Summary

Daily Weather History Graph

Daily Weather History Graph

Search for Another Location

Airport or City:

Astronomy

May. 03, 2012 Rise Set
Actual Time 6:19 AM EDT 8:44 PM EDT
Civil Twilight 5:46 AM EDT 9:18 PM EDT
Nautical Twilight 5:05 AM EDT 9:59 PM EDT
Astronomical Twilight 4:19 AM EDT 10:46 PM EDT
Moon 6:02 PM EDT (5/3) 4:31 AM EDT (5/3)
Length of Visible Light 15h 31m
Length of Day
14h 25m
Waxing Gibbous, 91% of the Moon is Illuminated
May 3
Waxing Gibbous
May 5
Full
May 12
Last Quarter
May 20
New
May 28
First Quarter

Hourly Weather History & Observations

Time (EDT) Temp. Windchill Dew Point Humidity Pressure Visibility Wind Dir Wind Speed Gust Speed Precip Events Conditions
12:13 AM 50.9 °F - 47.8 °F 89% 29.98 in 3.0 mi Calm Calm - N/A   Overcast
12:25 AM 50.0 °F - 48.2 °F 94% 29.98 in 3.0 mi Calm Calm - N/A   Overcast
12:45 AM 50.0 °F - 48.2 °F 94% 29.99 in 1.8 mi Calm Calm - N/A   Overcast
1:05 AM 50.0 °F - 48.2 °F 94% 29.98 in 0.5 mi Calm Calm - N/A   Overcast
1:25 AM 50.0 °F - 48.2 °F 94% 29.98 in 0.5 mi SSE 5.8 mph - N/A   Overcast
1:45 AM 51.8 °F - 48.2 °F 88% 30.00 in 0.2 mi Calm Calm - N/A   Overcast
2:05 AM 51.8 °F - 48.2 °F 88% 30.00 in 0.2 mi Calm Calm - N/A   Overcast
2:25 AM 51.8 °F - 50.0 °F 94% 29.99 in 0.2 mi Calm Calm - N/A   Overcast
2:45 AM 51.8 °F - 50.0 °F 94% 29.98 in 0.2 mi SSE 4.6 mph - N/A   Overcast
3:05 AM 51.8 °F - 48.2 °F 88% 29.99 in 0.5 mi Calm Calm - N/A   Overcast
3:35 AM 51.1 °F - 49.1 °F 93% 29.99 in 0.5 mi SSE 4.6 mph - N/A Fog Fog
3:55 AM 50.9 °F - 48.6 °F 92% 29.99 in 0.8 mi SSE 5.8 mph - N/A   Overcast
4:15 AM 50.4 °F - 48.2 °F 92% 29.99 in 1.5 mi SE 4.6 mph - N/A   Overcast
4:35 AM 50.0 °F - 47.8 °F 92% 29.98 in 4.0 mi SSE 6.9 mph - N/A   Overcast
4:55 AM 50.0 °F - 47.7 °F 92% 29.96 in 2.5 mi SE 6.9 mph - N/A   Overcast
5:15 AM 50.0 °F - 47.8 °F 92% 29.97 in 4.0 mi SE 4.6 mph - N/A   Overcast
5:34 AM 50.2 °F - 48.2 °F 93% 29.99 in 5.0 mi South 5.8 mph - N/A   Overcast
5:55 AM 50.9 °F - 48.6 °F 92% 29.99 in 7.0 mi Calm Calm - N/A Rain Light Rain
6:15 AM 51.1 °F - 49.1 °F 93% 30.00 in 5.0 mi Calm Calm - N/A Rain Rain
6:34 AM 50.9 °F - 48.9 °F 93% 30.00 in 3.0 mi SE 3.5 mph - N/A Rain Rain
6:55 AM 51.1 °F - 49.1 °F 93% 30.00 in 3.0 mi SE 4.6 mph - N/A Rain Rain
7:15 AM 51.8 °F - 49.3 °F 91% 30.01 in 3.0 mi SSW 4.6 mph - N/A Rain Rain
7:35 AM 53.1 °F - 50.9 °F 92% 30.02 in 4.0 mi South 12.7 mph - N/A Rain Heavy Rain
7:55 AM 53.6 °F - 51.3 °F 92% 30.00 in 4.0 mi South 6.9 mph - N/A Rain Rain
8:15 AM 53.6 °F - 51.3 °F 92% 29.97 in 4.0 mi SE 12.7 mph 19.6 mph N/A Rain Light Rain
8:35 AM 55.0 °F - 52.7 °F 92% 29.93 in 4.0 mi SE 17.3 mph - N/A Rain Light Rain
8:55 AM 56.1 °F - 53.6 °F 91% 29.91 in 7.0 mi SSE 16.1 mph 24.2 mph N/A Rain Light Rain
9:14 AM 56.7 °F - 53.8 °F 90% 29.90 in 7.0 mi SE 15.0 mph 23.0 mph N/A   Scattered Clouds
9:35 AM 56.8 °F - 53.6 °F 89% 29.91 in 7.0 mi SSE 16.1 mph 24.2 mph N/A   Scattered Clouds
9:55 AM 57.2 °F - 53.4 °F 87% 29.87 in 7.0 mi SE 10.4 mph 18.4 mph N/A   Scattered Clouds
10:14 AM 58.3 °F - 53.6 °F 84% 29.91 in 7.0 mi SE 9.2 mph 17.3 mph N/A   Clear
10:35 AM 61.2 °F - 54.7 °F 79% 29.93 in 7.0 mi SSE 11.5 mph 17.3 mph N/A   Clear
10:55 AM 61.0 °F - 54.5 °F 79% 29.93 in 10.0 mi SSE 11.5 mph 17.3 mph N/A   Clear
11:14 AM 61.0 °F - 54.5 °F 79% 29.93 in 10.0 mi SE 9.2 mph - N/A   Clear
11:35 AM 61.7 °F - 54.7 °F 78% 29.94 in 10.0 mi SSE 8.1 mph - N/A   Scattered Clouds
11:55 AM 62.2 °F - 54.7 °F 76% 29.95 in 10.0 mi SE 6.9 mph - N/A   Mostly Cloudy
12:35 PM 62.6 °F - 55.6 °F 78% 29.93 in 10.0 mi SSE 5.8 mph - N/A Rain Light Rain
12:54 PM 63.0 °F - 55.9 °F 78% 29.92 in 10.0 mi East 4.6 mph - N/A Rain Light Rain
1:15 PM 53.8 °F - 50.2 °F 88% 29.91 in 7.0 mi North 5.8 mph - N/A Rain Light Rain
1:34 PM 57.2 °F - 54.0 °F 89% 29.93 in 10.0 mi NE 4.6 mph - N/A   Clear
1:55 PM 50.2 °F - 45.5 °F 84% 29.94 in 10.0 mi NE 4.6 mph - N/A Rain Light Rain
2:14 PM 48.6 °F - 45.7 °F 90% 29.95 in 7.0 mi Calm Calm - N/A Rain Light Rain
2:34 PM 51.4 °F - 48.7 °F 90% 29.94 in 5.0 mi ESE 4.6 mph - N/A Rain Light Rain
2:55 PM 50.5 °F - 47.8 °F 90% 29.92 in 3.0 mi ENE 5.8 mph - N/A Rain Rain
3:14 PM 50.2 °F - 47.7 °F 91% 29.93 in 2.0 mi Calm Calm - N/A Rain Heavy Rain
3:35 PM 49.3 °F - 46.8 °F 91% 29.87 in 1.0 mi NNE 6.9 mph - N/A Rain Heavy Rain
3:55 PM 48.2 °F - 45.7 °F 91% 29.88 in 5.0 mi East 4.6 mph - N/A Rain Light Rain
4:14 PM 51.6 °F - 49.3 °F 92% 29.87 in 4.0 mi SSE 8.1 mph - N/A   Overcast
4:35 PM 54.7 °F - 52.3 °F 92% 29.83 in 5.0 mi SE 9.2 mph - N/A   Mostly Cloudy
4:55 PM 56.5 °F - 54.1 °F 92% 29.78 in 7.0 mi SE 12.7 mph 17.3 mph N/A   Mostly Cloudy
5:14 PM 57.4 °F - 54.7 °F 91% 29.80 in 5.0 mi SSE 11.5 mph - N/A   Overcast
5:35 PM 60.1 °F - 57.2 °F 90% 29.80 in 5.0 mi South 13.8 mph - N/A   Mostly Cloudy
5:55 PM 62.1 °F - 57.9 °F 86% 29.81 in 7.0 mi South 10.4 mph - N/A   Scattered Clouds
6:14 PM 63.0 °F - 58.3 °F 85% 29.81 in 7.0 mi South 6.9 mph - N/A   Scattered Clouds
6:35 PM 63.7 °F - 58.6 °F 84% 29.82 in 7.0 mi SSW 6.9 mph - N/A   Scattered Clouds
6:55 PM 63.5 °F - 59.0 °F 85% 29.82 in 5.0 mi SW 4.6 mph - N/A   Overcast
7:14 PM 64.2 °F - 59.5 °F 85% 29.82 in 7.0 mi West 3.5 mph - N/A   Scattered Clouds
7:35 PM 57.7 °F - 51.8 °F 81% 29.83 in 7.0 mi NNE 4.6 mph - N/A   Clear
7:55 PM 45.5 °F 41.3 °F 42.1 °F 88% 29.86 in 0.5 mi North 8.1 mph - N/A Fog Fog
8:15 PM 44.1 °F 41.5 °F 41.4 °F 90% 29.87 in 0.2 mi North 4.6 mph - N/A Fog Fog
8:35 PM 44.1 °F - 41.5 °F 91% 29.87 in 0.2 mi Calm Calm - N/A Fog Fog
8:55 PM 44.8 °F - 42.3 °F 91% 29.88 in 0.2 mi Calm Calm - N/A Fog Fog
9:14 PM 44.6 °F - 42.1 °F 91% 29.89 in 0.2 mi Calm Calm - N/A Fog Fog
9:35 PM 45.9 °F - 43.7 °F 92% 29.90 in 0.2 mi Calm Calm - N/A Fog Fog
9:55 PM 46.8 °F - 44.6 °F 92% 29.90 in 0.8 mi Calm Calm - N/A   Overcast
10:14 PM 47.5 °F - 45.1 °F 92% 29.90 in 4.0 mi Calm Calm - N/A   Overcast
10:35 PM 48.2 °F - 45.7 °F 91% 29.91 in 2.0 mi Calm Calm - N/A   Overcast
10:55 PM 47.8 °F - 45.5 °F 92% 29.90 in 2.0 mi Calm Calm - N/A   Mostly Cloudy
11:15 PM 47.3 °F - 44.8 °F 91% 29.91 in 1.8 mi Calm Calm - N/A   Scattered Clouds
11:35 PM 47.5 °F - 45.3 °F 92% 29.91 in 3.0 mi WSW 3.5 mph - N/A   Clear
11:54 PM 48.6 °F - 46.4 °F 92% 29.92 in 3.0 mi WSW 3.5 mph - N/A   Clear